[[{"header":{"parameterUnit":"m.s-1","parameterCategory":1,"la1":30.2991,"la2":30.254,"lo1":-89.0895,"lo2":-89.0444,"dy":0.0017,"dx":0.0017,"nx":28,"ny":28,"refTime":"2024-03-18T21:00:00:Z","depth":0,"parameterNumber":2,"parameterNumberName":"U-component_of_WINDS"},"data":[0,0,0,0,0,0,0,0,0,0,0,0,0,0,0,0,0,0,0,0,0,0,0,0,0,0,0,0,0,0,0,0,0,0,0,0,0,0,0,0,0,0,0,0,0,0,0,0,0,0,0,0,0,0,0,0,0,0,2.5174,2.5176,0,2.5326,2.5328,2.533,2.5321,2.5318,2.5316,2.5314,2.547,2.5476,2.5482,0,0,0,0,0,0,0,0,0,0,0,0,0,2.4873,2.4879,2.5174,2.5176,2.5178,2.5326,2.5328,2.533,2.5321,2.5318,2.5315,2.5313,2.5468,2.5475,2.5483,0,0,0,0,0,0,0,0,0,0,0,0,0,2.5012,2.488,2.5173,2.5191,2.5194,2.5326,2.5328,2.5331,2.5321,2.5318,2.5315,2.5312,2.5466,2.5475,2.5484,2.5608,0,0,2.5512,2.5516,0,0,0,0,0,0,0,0,2.5004,2.5023,2.5186,2.519,2.5194,2.5301,2.5279,2.5424,2.5322,2.5273,2.5314,2.531,2.5416,2.543,2.5466,2.5615,2.5622,2.5513,2.5519,2.5523,2.5525,0,0,0,0,0,0,0,2.4995,2.5017,2.5234,2.5189,2.5193,2.519,2.5207,2.5307,2.5362,2.5277,2.5277,2.5295,2.5418,2.5457,2.5469,2.5624,2.5513,2.5521,2.5527,2.5531,2.5882,2.5885,0,0,0,0,0,0,2.4981,2.5009,2.5229,2.5239,2.5089,2.5199,2.5217,2.527,2.536,2.5371,2.5298,2.5294,2.5442,2.5458,2.5475,2.5624,2.5523,2.5532,2.5537,2.5878,2.5882,2.5886,0,0,0,0,0,0,2.4975,2.5001,2.5223,2.5124,2.5152,2.5207,2.5267,2.5275,2.5313,2.5376,2.5386,2.5327,2.544,2.5461,2.5574,2.563,2.5536,2.5544,2.5873,2.5879,2.5884,2.5926,0,0,0,0,0,0,2.4966,2.4999,2.5047,2.5125,2.5157,2.5321,2.5271,2.528,2.533,2.5326,2.5406,2.5416,2.5439,2.5561,2.5584,2.5641,2.5552,2.5869,2.5876,2.5883,2.592,2.5932,2.5943,0,0,0,0,0,2.4956,2.5053,2.505,2.5076,2.5219,2.5324,2.5343,2.5367,2.5334,2.5383,2.5422,2.5414,2.562,2.5572,2.5598,2.5659,2.5865,2.5874,2.5882,2.5915,2.593,2.5943,0,0,0,0,0,0,2.4981,2.5064,2.5061,2.5187,2.5248,2.5322,2.5385,2.5383,2.5455,2.5449,2.5476,2.5494,2.5607,2.5645,2.559,2.5783,2.5738,2.5752,2.5754,2.5769,2.578,2.5768,2.5559,0,0,0,0,0,2.5001,2.508,2.5148,2.5253,2.5284,2.5329,2.5376,2.5389,2.5454,2.548,2.5529,2.5592,2.5671,2.5722,2.5798,2.5925,2.5942,2.598,2.5991,2.6,2.6012,2.608,2.6097,2.5914,2.5914,2.5914,0,0,2.5044,2.5099,2.5147,2.5259,2.5309,2.5389,2.5351,2.5438,2.5498,2.5494,2.5603,2.564,2.5713,2.5833,2.5888,2.5867,2.6066,2.6011,2.6018,2.6025,2.609,2.6107,2.6123,2.592,2.5919,2.5918,0,0,2.5162,2.5213,2.5304,2.5354,2.5429,2.5458,2.548,2.5555,2.5579,2.5689,2.5687,2.5758,2.5894,2.5945,2.5989,2.6124,2.6118,2.6149,2.6208,2.6274,2.6288,2.6301,2.6348,2.6365,2.616,2.616,2.616,0,2.5206,2.5327,2.5351,2.5439,2.5487,2.5487,2.5579,2.5626,2.5722,2.5755,2.5731,2.59,2.5949,2.608,2.6113,2.6149,2.6173,2.6139,2.6284,2.6298,2.631,2.6355,2.6372,2.6163,2.6163,2.6162,2.6162,0,2.5376,2.546,2.5525,2.5617,2.5673,2.5762,2.5799,2.5853,2.5861,2.5892,2.6003,2.6061,2.6148,2.6181,2.619,2.6313,2.6297,2.6279,2.6234,2.633,2.6372,2.639,2.6167,2.6166,2.6165,2.6165,0,0,2.5515,2.5618,2.5642,2.5682,2.5764,2.583,2.5918,2.6003,2.6048,2.6114,2.6188,2.6302,2.6285,2.6334,2.6349,2.6407,2.6508,2.6381,2.6383,2.6401,2.6645,2.6657,2.6677,2.6505,2.6509,2.6512,2.6638,0,2.5641,2.5798,2.5821,2.5959,2.6036,2.6036,2.6113,2.6171,2.6203,2.6272,2.6307,2.6386,2.6358,2.6388,2.6445,2.6484,2.6557,2.6475,2.6573,2.6576,2.6554,2.6699,2.6713,2.683,2.6655,2.6658,2.666,0,2.5809,2.5878,2.6023,2.6093,2.6126,2.6195,2.6273,2.634,2.6406,2.6424,2.6479,2.6486,2.6577,2.6529,2.6654,2.6597,2.6639,2.6664,2.6669,2.6678,2.6623,2.6711,2.6868,2.6885,2.6687,2.6685,2.6683,0,2.5893,2.6023,2.6127,2.6162,2.6246,2.6294,2.6331,2.6394,2.6442,2.6511,2.6542,2.6621,2.6664,2.6724,2.6752,2.6715,2.6874,2.6829,2.6891,2.689,2.6923,2.6921,2.7088,2.6953,2.6952,2.6952,2.6952,0,2.603,2.6119,2.6165,2.6229,2.6327,2.6353,2.645,2.6486,2.6541,2.661,2.6616,2.6681,2.6714,2.6784,2.6807,2.6905,2.6925,2.6942,2.6946,2.694,2.6938,2.6967,2.6959,2.6957,2.6956,2.6955,2.6954,0,2.6141,2.6176,2.6288,2.6358,2.6378,2.6447,2.6507,2.6568,2.6598,2.6686,2.6709,2.6756,2.6839,2.6873,2.6974,2.6989,2.7102,2.7101,2.7079,2.708,2.7139,2.7133,2.733,2.7356,2.7205,2.7207,2.7208,0,2.6225,2.6293,2.637,2.6417,2.6455,2.6531,2.658,2.6608,2.6659,2.6738,2.6789,2.6871,2.6938,2.707,2.7113,2.719,2.719,2.7254,2.7202,2.7193,2.7189,2.7184,2.719,2.7263,2.7265,2.7266,2.7267,0,2.6371,2.6384,2.6455,2.6532,2.659,2.6652,2.6713,2.6751,2.6787,2.6844,2.6928,2.698,2.7083,2.7164,2.7243,2.7281,2.728,2.7283,2.7301,2.7295,2.7279,2.7286,2.7104,2.7278,2.7277,2.7276,2.7276,2.7275,2.647,2.6529,2.6592,2.667,2.6718,2.6774,2.6834,2.6871,2.6942,2.7027,2.7039,2.7129,2.7191,2.7297,2.7338,2.7407,2.7391,2.7418,2.7424,2.743,2.7432,2.7269,2.7422,2.7422,2.7422,2.7421,2.7421,0,2.6614,2.6654,2.6726,2.6809,2.687,2.6864,2.693,2.6981,2.7059,2.7117,2.7183,2.7278,2.7356,2.7405,2.7484,2.753,2.7531,2.755,2.7546,2.7554,2.7444,2.7419,2.7547,2.7547,2.7547,2.7547,2.7547,2.7547,2.6696,2.6795,2.6816,2.6939,2.6978,2.7065,2.7103,2.7154,2.72,2.7306,2.7371,2.7402,2.7456,2.7538,2.7609,2.7621,2.7649,2.7668,2.7679,2.7575,2.7562,2.7549,2.7527,2.7675,2.7675,2.7783,2.7784,2.7785]},{"header":{"parameterUnit":"m.s-1","parameterCategory":1,"la1":30.2991,"la2":30.254,"lo1":-89.0895,"lo2":-89.0444,"dy":0.0017,"dx":0.0017,"nx":28,"ny":28,"refTime":"2024-03-18T21:00:00:Z","depth":0,"parameterNumber":3,"parameterNumberName":"V-component_of_WINDS"},"data":[0,0,0,0,0,0,0,0,0,0,0,0,0,0,0,0,0,0,0,0,0,0,0,0,0,0,0,0,0,0,0,0,0,0,0,0,0,0,0,0,0,0,0,0,0,0,0,0,0,0,0,0,0,0,0,0,0,0,-1.7216,-1.7217,0,-1.7303,-1.7304,-1.7305,-1.7337,-1.7337,-1.7337,-1.7336,-1.7425,-1.7427,-1.743,0,0,0,0,0,0,0,0,0,0,0,0,0,-1.7078,-1.708,-1.7216,-1.7217,-1.7219,-1.7303,-1.7304,-1.7306,-1.7337,-1.7337,-1.7337,-1.7336,-1.7424,-1.7427,-1.743,0,0,0,0,0,0,0,0,0,0,0,0,0,-1.7149,-1.7081,-1.7216,-1.7245,-1.7248,-1.7303,-1.7305,-1.7306,-1.7337,-1.7337,-1.7337,-1.7336,-1.7423,-1.7427,-1.743,-1.7463,0,0,-1.7442,-1.7444,0,0,0,0,0,0,0,0,-1.7145,-1.7154,-1.7239,-1.7243,-1.7247,-1.7309,-1.7288,-1.7359,-1.7338,-1.7303,-1.7336,-1.7336,-1.7386,-1.7393,-1.7411,-1.7467,-1.7471,-1.7443,-1.7445,-1.7447,-1.7448,0,0,0,0,0,0,0,-1.714,-1.715,-1.7251,-1.7241,-1.7245,-1.7253,-1.7263,-1.7302,-1.7346,-1.7306,-1.7309,-1.7319,-1.7388,-1.7407,-1.7413,-1.7473,-1.7443,-1.7446,-1.7449,-1.745,-1.7562,-1.7562,0,0,0,0,0,0,-1.713,-1.7146,-1.7248,-1.7253,-1.7194,-1.7256,-1.7267,-1.7289,-1.7346,-1.7354,-1.7319,-1.732,-1.74,-1.7408,-1.7416,-1.7459,-1.7447,-1.7451,-1.7453,-1.7561,-1.7562,-1.7562,0,0,0,0,0,0,-1.7127,-1.7139,-1.7245,-1.72,-1.7214,-1.7259,-1.7284,-1.7291,-1.731,-1.7356,-1.7364,-1.733,-1.74,-1.7411,-1.7452,-1.7462,-1.7452,-1.7456,-1.756,-1.7561,-1.7562,-1.7544,0,0,0,0,0,0,-1.7123,-1.7138,-1.715,-1.72,-1.7217,-1.7278,-1.7285,-1.7293,-1.7317,-1.7319,-1.7368,-1.7375,-1.7401,-1.7446,-1.7455,-1.7467,-1.7459,-1.756,-1.7561,-1.7562,-1.7543,-1.7544,-1.7544,0,0,0,0,0,-1.7118,-1.7141,-1.7151,-1.7163,-1.7234,-1.7279,-1.7288,-1.7317,-1.7317,-1.7331,-1.736,-1.7374,-1.746,-1.745,-1.7461,-1.7474,-1.7559,-1.756,-1.7562,-1.7543,-1.7544,-1.7544,0,0,0,0,0,0,-1.7091,-1.7148,-1.7159,-1.72,-1.7234,-1.7284,-1.7302,-1.7317,-1.7351,-1.7352,-1.7386,-1.7397,-1.7435,-1.7459,-1.7447,-1.7509,-1.751,-1.7514,-1.7492,-1.7493,-1.7493,-1.7486,-1.7462,0,0,0,0,0,-1.7089,-1.7121,-1.717,-1.7201,-1.7218,-1.7257,-1.7278,-1.7297,-1.7334,-1.7349,-1.7381,-1.7416,-1.7452,-1.7474,-1.7508,-1.7547,-1.7559,-1.7562,-1.7563,-1.7563,-1.7565,-1.7588,-1.759,-1.7567,-1.7567,-1.7567,0,0,-1.7087,-1.7123,-1.7141,-1.7197,-1.7226,-1.7258,-1.7269,-1.7303,-1.7327,-1.7354,-1.7395,-1.742,-1.7461,-1.7502,-1.7521,-1.7523,-1.7574,-1.7564,-1.7564,-1.7567,-1.759,-1.7592,-1.7594,-1.7568,-1.7568,-1.7568,0,0,-1.7099,-1.7129,-1.7159,-1.7188,-1.7232,-1.7258,-1.7265,-1.7313,-1.7331,-1.7373,-1.7394,-1.7423,-1.7483,-1.7512,-1.7534,-1.7559,-1.7573,-1.757,-1.7571,-1.7593,-1.7594,-1.7596,-1.7605,-1.7608,-1.7572,-1.7572,-1.7572,0,-1.709,-1.714,-1.7172,-1.7205,-1.7229,-1.7256,-1.7286,-1.7313,-1.7365,-1.7382,-1.7383,-1.7459,-1.7489,-1.7536,-1.7542,-1.756,-1.7569,-1.7564,-1.7592,-1.7594,-1.7596,-1.7605,-1.7608,-1.7571,-1.7571,-1.7572,-1.7572,0,-1.7128,-1.7162,-1.7181,-1.7232,-1.7258,-1.7289,-1.7326,-1.7349,-1.7366,-1.7392,-1.7435,-1.7472,-1.7515,-1.7528,-1.7545,-1.7578,-1.7578,-1.7585,-1.7586,-1.7597,-1.7606,-1.7609,-1.757,-1.7571,-1.7571,-1.7571,0,0,-1.7124,-1.7193,-1.7199,-1.7223,-1.7274,-1.7301,-1.7334,-1.7377,-1.7396,-1.7432,-1.7461,-1.7511,-1.7518,-1.7544,-1.7565,-1.7584,-1.7602,-1.7589,-1.7591,-1.759,-1.7641,-1.7635,-1.7638,-1.7612,-1.7612,-1.7613,-1.7637,0,-1.7143,-1.7203,-1.7233,-1.728,-1.7312,-1.7339,-1.7367,-1.7402,-1.7427,-1.7458,-1.7487,-1.7522,-1.7529,-1.7544,-1.7565,-1.7595,-1.7612,-1.7594,-1.7638,-1.7639,-1.7626,-1.7643,-1.7636,-1.7657,-1.7641,-1.7641,-1.7642,0,-1.7172,-1.7209,-1.7259,-1.7307,-1.7322,-1.7347,-1.7389,-1.7419,-1.7459,-1.7476,-1.7505,-1.7526,-1.7562,-1.7561,-1.7611,-1.7598,-1.7618,-1.7636,-1.7638,-1.7642,-1.7641,-1.7647,-1.7664,-1.7667,-1.7648,-1.7647,-1.7647,0,-1.7164,-1.7226,-1.7264,-1.7284,-1.7341,-1.7358,-1.7383,-1.7423,-1.7447,-1.7483,-1.7499,-1.754,-1.7561,-1.7592,-1.7623,-1.762,-1.7671,-1.7673,-1.7686,-1.7685,-1.7694,-1.7693,-1.7714,-1.7708,-1.7708,-1.7708,-1.7708,0,-1.7182,-1.7212,-1.7262,-1.7285,-1.732,-1.7354,-1.7387,-1.7414,-1.7449,-1.7478,-1.7504,-1.753,-1.757,-1.7602,-1.7627,-1.7665,-1.7675,-1.769,-1.7696,-1.7687,-1.7685,-1.77,-1.7699,-1.7709,-1.7709,-1.7709,-1.7708,0,-1.7178,-1.7213,-1.7257,-1.7308,-1.7321,-1.7344,-1.7388,-1.7412,-1.7439,-1.7476,-1.7487,-1.7529,-1.7568,-1.7603,-1.7654,-1.7671,-1.771,-1.7717,-1.7696,-1.7699,-1.771,-1.7709,-1.7741,-1.7747,-1.7737,-1.7737,-1.7737,0,-1.7187,-1.7211,-1.7265,-1.7286,-1.7311,-1.7345,-1.737,-1.7405,-1.743,-1.7478,-1.7496,-1.7537,-1.7572,-1.7633,-1.7668,-1.7708,-1.7717,-1.7726,-1.7723,-1.7714,-1.7717,-1.7715,-1.7717,-1.7725,-1.7725,-1.7725,-1.7725,0,-1.7199,-1.7215,-1.725,-1.7291,-1.732,-1.7354,-1.7389,-1.7405,-1.7447,-1.7474,-1.7514,-1.7541,-1.7594,-1.7635,-1.7679,-1.7704,-1.7722,-1.7726,-1.7731,-1.7722,-1.7708,-1.7716,-1.7695,-1.7725,-1.7725,-1.7725,-1.7725,-1.7725,-1.7202,-1.7224,-1.7266,-1.7304,-1.7334,-1.7366,-1.7391,-1.7422,-1.7456,-1.7503,-1.7521,-1.7563,-1.7603,-1.7664,-1.769,-1.7722,-1.7725,-1.7733,-1.7735,-1.7736,-1.7734,-1.7704,-1.7731,-1.7731,-1.7731,-1.7731,-1.7731,0,-1.7214,-1.7243,-1.7278,-1.7326,-1.7356,-1.7371,-1.741,-1.7434,-1.747,-1.7507,-1.7541,-1.7587,-1.7627,-1.7666,-1.7708,-1.7727,-1.7736,-1.7737,-1.7735,-1.7741,-1.7729,-1.772,-1.7729,-1.7729,-1.7729,-1.7729,-1.7729,-1.7729,-1.7225,-1.7263,-1.7285,-1.7339,-1.7367,-1.7408,-1.7429,-1.7459,-1.7489,-1.754,-1.7573,-1.7598,-1.7636,-1.7681,-1.7718,-1.7729,-1.7743,-1.7741,-1.7754,-1.7742,-1.7742,-1.7741,-1.7733,-1.7744,-1.7744,-1.7763,-1.7763,-1.7763]}]]